Weather History for LTBA - June, 2012

Change the Weather History Date:

Thursday, June 14, 2012

  Actual Average Record
Temperature  
Mean Temperature 80 °F -  
Max Temperature 89 °F 80 °F 89 °F (2007)
Min Temperature 71 °F 66 °F 59 °F (2006)
Cooling Degree Days 15    
Growing Degree Days 30 (Base 50)    
Moisture  
Dew Point 61 °F    
Average Humidity 53    
Maximum Humidity 88    
Minimum Humidity 24    
Precipitation  
Precipitation 0.00 in - - ()
Sea Level Pressure  
Sea Level Pressure 29.83 in    
Wind  
Wind Speed 6 mph ()    
Max Wind Speed 21 mph    
Max Gust Speed -    
Visibility 6.0 miles    
Events      
Averages and records for this station are not official NWS values.
T = Trace of Precipitation, MM = Missing Value Source: Averaged Metar Reports

Daily Weather History Graph

Daily Weather History Graph

Search for Another Location

Airport or City:

Trip Planner

Search our weather history database for the weather conditions in past years. The results will help you decide how hot, cold, wet, or windy it might be!

Date:

Astronomy

Jun. 14, 2012 Rise Set
Actual Time 5:32 AM EEST 8:38 PM EEST
Civil Twilight 4:58 AM EEST 9:11 PM EEST
Nautical Twilight 4:15 AM EEST 9:54 PM EEST
Astronomical Twilight 3:25 AM EEST 10:45 PM EEST
Moon 2:06 AM EEST (6/14) 4:01 PM EEST (6/14)
Length of Visible Light 16h 13m
Length of Day
15h 06m
Waning Crescent, 23% of the Moon is Illuminated
Jun 14
Waning Crescent
Jun 19
New
Jun 27
First Quarter
Jul 3
Full
Jul 11
Last Quarter

Hourly Weather History & Observations

Time (EEST) Temp. Heat Index Dew Point Humidity Pressure Visibility Wind Dir Wind Speed Gust Speed Precip Events Conditions
12:20 AM 77.0 °F - 68.0 °F 74% 29.77 in - WNW 3.5 mph - N/A   Clear
12:50 AM 77.0 °F - 69.8 °F 78% 29.77 in - Calm Calm - N/A   Clear
1:20 AM 82.4 °F 83.4 °F 62.6 °F 51% 29.77 in - Variable 4.6 mph - N/A   Clear
1:50 AM 80.6 °F 82.3 °F 64.4 °F 58% 29.77 in - ESE 3.5 mph - N/A   Clear
2:20 AM 77.0 °F - 64.4 °F 65% 29.77 in - Variable 1.2 mph - N/A   Clear
2:50 AM 75.2 °F - 62.6 °F 65% 29.77 in - North 3.5 mph - N/A   Clear
3:00 AM 75 °F - 62 °F 56% 29.78 in 6 mi North 3.5 mph - -  
3:20 AM 75.2 °F - 62.6 °F 65% 29.77 in - Variable 1.2 mph - N/A   Clear
3:50 AM 75.2 °F - 66.2 °F 73% 29.77 in - Calm Calm - N/A   Clear
4:20 AM 75.2 °F - 64.4 °F 69% 29.77 in - Calm Calm - N/A   Clear
4:50 AM 75.2 °F - 64.4 °F 69% 29.77 in - Variable 1.2 mph - N/A   Clear
5:20 AM 73.4 °F - 64.4 °F 73% 29.77 in - WNW 1.2 mph - N/A   Clear
5:50 AM 71.6 °F - 64.4 °F 78% 29.77 in - NW 2.3 mph - N/A   Clear
6:20 AM 73.4 °F - 64.4 °F 73% 29.77 in - NNW 4.6 mph - N/A   Clear
6:50 AM 75.2 °F - 62.6 °F 65% 29.80 in - North 9.2 mph - N/A   Clear
7:20 AM 77.0 °F - 64.4 °F 65% 29.80 in - NNW 9.2 mph - N/A   Clear
7:50 AM 77.0 °F - 66.2 °F 69% 29.80 in - NNW 6.9 mph - N/A   Clear
8:20 AM 78.8 °F - 64.4 °F 61% 29.80 in - North 6.9 mph - N/A   Clear
8:50 AM 82.4 °F 82.5 °F 59.0 °F 45% 29.80 in - NNE 5.8 mph - N/A   Clear
9:00 AM 82 °F - 62 °F 41% 29.82 in 6 mi NNE 5.8 mph - -  
9:20 AM 84.2 °F 84.4 °F 60.8 °F 45% 29.83 in - Variable 6.9 mph - N/A   Clear
9:50 AM 87.8 °F 85.7 °F 53.6 °F 31% 29.80 in - Variable 6.9 mph - N/A   Clear
10:20 AM 87.8 °F 87.1 °F 59.0 °F 38% 29.80 in - North 4.6 mph - N/A   Clear
10:50 AM 87.8 °F 86.5 °F 57.2 °F 35% 29.83 in - NE 5.8 mph - N/A   Clear
11:20 AM 89.6 °F 90.1 °F 62.6 °F 40% 29.83 in - Variable 5.8 mph - N/A   Clear
11:50 AM 87.8 °F 86.5 °F 57.2 °F 35% 29.83 in - NNE 9.2 mph - N/A   Clear
12:20 PM 87.8 °F 87.1 °F 59.0 °F 38% 29.83 in - North 12.7 mph - N/A   Clear
12:50 PM 87.8 °F 87.1 °F 59.0 °F 38% 29.83 in - North 9.2 mph - N/A   Clear
1:20 PM 87.8 °F 87.6 °F 60.8 °F 40% 29.83 in - North 13.8 mph - N/A   Clear
1:50 PM 87.8 °F 86.5 °F 57.2 °F 35% 29.83 in - North 16.1 mph - N/A   Clear
2:20 PM 87.8 °F 86.1 °F 55.4 °F 33% 29.83 in - North 15.0 mph - N/A   Clear
2:50 PM 87.8 °F 87.6 °F 60.8 °F 40% 29.83 in - North 16.1 mph - N/A   Clear
3:00 PM 88 °F - 56 °F 24% 29.83 in 6 mi North 16.1 mph - -  
3:20 PM 86.0 °F 86.1 °F 60.8 °F 43% 29.83 in - North 18.4 mph - N/A   Clear
3:50 PM 86.0 °F 86.1 °F 60.8 °F 43% 29.83 in - North 18.4 mph - N/A   Clear
4:20 PM 86.0 °F 87.3 °F 64.4 °F 48% 29.83 in - North 20.7 mph - N/A   Clear
4:50 PM 84.2 °F 83.8 °F 59.0 °F 42% 29.83 in - North 19.6 mph - N/A   Clear
5:20 PM 86.0 °F 86.1 °F 60.8 °F 43% 29.86 in - North 17.3 mph - N/A   Clear
5:50 PM 84.2 °F 83.5 °F 57.2 °F 40% 29.86 in - North 16.1 mph - N/A   Clear
6:20 PM 84.2 °F 83.5 °F 57.2 °F 40% 29.86 in - North 12.7 mph - N/A   Clear
6:50 PM 82.4 °F 82.0 °F 57.2 °F 42% 29.86 in - North 13.8 mph - N/A   Clear
7:20 PM 82.4 °F 81.7 °F 55.4 °F 39% 29.86 in - NNE 11.5 mph - N/A   Clear
7:50 PM 82.4 °F 82.0 °F 57.2 °F 42% 29.89 in - NNE 11.5 mph - N/A   Clear
8:20 PM 82.4 °F 81.7 °F 55.4 °F 39% 29.89 in - NE 10.4 mph - N/A   Clear
8:50 PM 80.6 °F 80.8 °F 57.2 °F 45% 29.89 in - NE 8.1 mph - N/A   Clear
9:00 PM 81 °F - 56 °F 32% 29.90 in 6 mi NE 8.1 mph - -  
9:20 PM 78.8 °F - 59.0 °F 51% 29.92 in - NNE 9.2 mph - N/A   Clear
9:50 PM 73.4 °F - 68.0 °F 83% 29.92 in - North 12.7 mph - N/A   Clear
10:20 PM 75.2 °F - 66.2 °F 73% 29.92 in - NNE 9.2 mph - N/A   Clear
10:50 PM 75.2 °F - 66.2 °F 73% 29.92 in - NNE 9.2 mph - N/A   Clear
11:20 PM 75.2 °F - 66.2 °F 73% 29.95 in - NNE 11.5 mph - N/A   Clear
11:50 PM 73.4 °F - 69.8 °F 88% 29.95 in - North 11.5 mph - N/A   Clear